Hourly Weather Roundup
Issued by NWS Central Illinois

Home | Current Version | Previous Version | Text Only | Print | Product List | Glossary On
Versions: 1 2 3 4 5 6 7 8 9 10 11 12 13 14 15 16 17 18 19 20 21 22 23 24 25 26 27 28 29 30 31 32 33 34 35 36 37 38 39 40 41 42 43 44 45 46 47 48 49 50
000
NZUS43 KILX 260710
HWRILX

AREA WEATHER ROUNDUP
NATIONAL WEATHER SERVICE, LINCOLN IL
200 AM CDT TUE MAY 26 2015


CITY           SKY/WX    TMP DP  RH WIND       PRES   REMARKS
BLOOMINGTON    PTCLDY    68  67  96 S14       29.96F
CHAMPAIGN      MOCLDY    68  65  90 S14       29.98F
DANVILLE       MOCLDY    67  65  93 S8        29.97F
DECATUR        NOT AVBL
EFFINGHAM      CLOUDY    69  65  86 SE7       30.00F
FLORA          CLOUDY    69  67  92 S10       29.99S
GALESBURG      CLEAR     68  65  90 S7        29.90R
JACKSONVILLE   CLOUDY    73  68  85 SE13G18   29.91F
LACON          CLEAR     69  65  86 S9G17     29.91S
LAWRENCEVILLE  MOCLDY    68  66  93 SE10      30.01F
LITCHFIELD     CLOUDY    69  65  88 SE13      29.95S
$$


CITY           SKY/WX    TMP DP  RH WIND       PRES   REMARKS
LINCOLN        MOCLDY    70  66  86 S12       29.92S
MACOMB         PTCLDY    70  66  89 S10       29.91S
MATTOON        CLOUDY    68  65  90 S12       29.97F
MT CARMEL AP   CLOUDY    72  64  78 S13       30.01F
OLNEY-NOBLE AP CLOUDY    68  66  94 SE8       30.00S
PARIS          CLOUDY    67  66  95 S12       30.01F
PEORIA         PTCLDY    71  66  84 S15       29.92S
PONTIAC        CLEAR     69  67  92 S12       29.95S
RANTOUL        PTCLDY    69  66  92 S9        29.97F
ROBINSON       MOCLDY    67  65  94 S8        30.02F
SPRINGFIELD    MOCLDY    71  66  84 S12       29.93F
TAYLORVILLE    CLOUDY    68  64  88 SE13      29.95F
$$

...REGIONAL REPORTS...


CITY           SKY/WX    TMP DP  RH WIND       PRES   REMARKS
CHICAGO O`HARE PTCLDY    70  63  78 S12       29.93S
KANKAKEE       CLEAR     67  65  92 S12       29.97S
MOLINE         CLEAR     71  65  81 S10       29.86F
MOUNT VERNON   CLOUDY    70  64  83 SE7       29.99S
PITTSFIELD     CLOUDY    71  66  83 SE7       29.90F
QUINCY         CLOUDY    72  65  78 S9        29.87F
ROCKFORD       PTCLDY    69  62  78 S7        29.92S
$$


CITY           SKY/WX    TMP DP  RH WIND       PRES   REMARKS
BURLINGTON     CLEAR     71  67  87 S12       29.87R
CEDAR RAPIDS   MOCLDY    66  64  93 CALM      29.84F
DES MOINES     CLOUDY    62  59  90 CALM      29.79F
KIRKSVILLE     CLOUDY    70  66  87 S12       29.84F
OTTUMWA        CLOUDY    64  60  87 E5        29.83F
ST LOUIS       CLOUDY    74  66  76 SE12G20   29.90F
$$


CITY           SKY/WX    TMP DP  RH WIND       PRES   REMARKS
TERRE HAUTE    MOCLDY    66  64  93 S8        30.02F
EVANSVILLE     MOCLDY    68  66  93 SE7       30.03S
INDIANAPOLIS   PTCLDY    65  62  90 SE8       30.03F
LAFAYETTE      PTCLDY    65  64  97 S7        30.00F
MADISON        CLEAR     67  60  78 S6        29.87S
MILWAUKEE      PTCLDY    68  59  73 SW10      29.91R
$$




USA.gov is the U.S. government's official web portal to all federal, state and local government web resources and services.